Regional Weather Roundup
Issued by NWS

Home | Current Version | Previous Version | Graphics & Text | Print | Product List | Glossary On
Versions: 1 2 3 4 5 6 7 8 9 10 11 12 13 14 15 16 17 18 19 20 21 22 23 24 25 26 27 28 29 30 31 32 33 34 35 36 37 38 39 40 41 42 43 44 45 46 47 48 49 50
000
ASUS45 KPSR 271300
RWRAZ

PRELIMINARY ARIZONA REGIONAL HOURLY WEATHER ROUNDUP
NATIONAL WEATHER SERVICE PHOENIX AZ
600 AM MST THU NOV 27 2014

NOTE: FAIR INDICATES FEW OR NO CLOUDS BELOW 12,000 FEET WITH NO
SIGNIFICANT WEATHER AND/OR OBSTRUCTIONS TO VISIBILITY.

AZZ001>003-036-271400-
NORTHWEST ARIZONA

CITY           SKY/WX    TMP DP  RH WIND       PRES   REMARKS
KINGMAN        PTCLDY    43  17  35 NE6       30.30R
$$

AZZ004>008-015-016-018-271400-
NORTH CENTRAL ARIZONA

CITY           SKY/WX    TMP DP  RH WIND       PRES   REMARKS
GRAND CANYON   PTCLDY    16   7  67 CALM      30.46S
PRESCOTT       PTCLDY    31  15  52 S8        30.38S WCI  23
FLAGSTAFF      NOT AVBL
PAYSON         CLEAR     52  14  22 E6        30.38S
PAGE           MOCLDY    37  17  44 CALM      30.44R
$$

AZZ009>014-017-271400-
NORTHEAST ARIZONA

CITY           SKY/WX    TMP DP  RH WIND       PRES   REMARKS
WINSLOW        CLOUDY    22  12  65 S6        30.46S WCI  14
SAINT JOHNS    MOCLDY    22  14  71 SW3       30.45S
SHOW LOW       PTCLDY    25  14  63 CALM      30.47R
$$

AZZ023-271400-
GREATER PHOENIX AREA

CITY           SKY/WX    TMP DP  RH WIND       PRES   REMARKS
PHOENIX        PTCLDY    48  30  49 E8        30.18R
BUCKEYE          N/A     41  19  42 SE6       30.18R
GLENDALE       CLEAR     45  30  57 CALM      30.20
LUKE AFB       CLEAR     43  28  56 N5        30.18R HAZE
DEER VALLEY    CLEAR     49  18  29 CALM      30.18R
SCOTTSDALE     CLEAR     48  25  40 CALM      30.19S
MESA-GATEWAY   CLEAR     41  19  42 E6        30.21S
CHANDLER       CLEAR     39  28  65 VRB5      30.19
$$

AZZ027-028-271400-
SOUTHWEST MARICOPA COUNTY AND PINAL COUNTY

CITY           SKY/WX    TMP DP  RH WIND       PRES   REMARKS
CASA GRANDE    CLEAR     43  16  33 CALM      30.19F
$$

AZZ503-504-507>509-271400-
SOUTHEAST ARIZONA

CITY           SKY/WX    TMP DP  RH WIND       PRES   REMARKS
TUCSON         CLEAR     42  19  39 CALM      30.24R
DAVIS-MONTHAN  PTCLDY    45  19  35 SE5       30.22R
RYAN FIELD       N/A     39  18  41 CALM      30.23
NOGALES        CLEAR     48  20  32 CALM      30.26R
SIERRA VISTA   PTCLDY    50  19  29 NE5       30.32R
DOUGLAS        PTCLDY    32  18  56 N7        30.33R WCI  26
SAFFORD        PTCLDY    37  15  40 S13       30.32S WCI  29
$$

AZZ020-021-025-026-031-271400-
SOUTHWEST ARIZONA

CITY           SKY/WX    TMP DP  RH WIND       PRES   REMARKS
YUMA           CLEAR     57  22  25 N9        30.14R
$$

CAZ031-033-041-043-047-048-061-271400-
SOUTHERN CALIFORNIA

CITY           SKY/WX    TMP DP  RH WIND       PRES   REMARKS
DOWNTOWN L.A.  CLEAR     63  21  20 NE3       30.08S
L.A. AIRPORT   CLEAR     63  21  20 E5        30.08F
SAN DIEGO      CLEAR     56  31  38 CALM      30.08F
BURBANK        CLEAR     55  17  22 N8        30.10S
ONTARIO        CLEAR     53  29  39 N5        30.12S
RIVERSIDE      CLEAR     56  25  30 NE6       30.12S
PALM SPRINGS   CLEAR     48  32  53 W3        30.17S
EL CENTRO NAS  CLEAR     46  22  38 W7        30.14R
IMPERIAL       CLEAR     46  28  49 SW3       30.14R
BLYTHE         CLEAR     48  13  24 N6        30.18R
$$

NVZ020-UTZ003-271400-
SOUTHERN NEVADA-UTAH

CITY           SKY/WX    TMP DP  RH WIND       PRES   REMARKS
LAS VEGAS      CLEAR     46  18  32 SW6       30.26S
SALT LAKE CITY MOCLDY    46  26  45 SE16      30.28F
$$

NMZ009-TXZ055-271400-
NEW MEXICO-WEST TEXAS

CITY           SKY/WX    TMP DP  RH WIND       PRES   REMARKS
ALBUQUERQUE    PTCLDY    36  22  56 NW5       30.45R WCI  32
EL PASO        MOCLDY    34  18  52 NE3       30.38R
$$


........................KEY........................
SKY/WX - SKY CONDITION/WEATHER
TMP    - TEMPERATURE IN FAHRENHEIT
DP     - DEW POINT IN FAHRENHEIT
RH     - RELATIVE HUMIDITY IN PERCENT
WIND   - DIRECTION AND SPEED IN MILES PER HOUR (MPH)
VRB    - VARIABLE WIND DIRECTION
PRES   - MEAN SEA LEVEL PRESSURE IN INCHES OF MERCURY
         F - FALLING PRESSURE   R - RISING PRESSURE
         S - STEADY PRESSURE
VSB    - VISIBILITY IN MILES
HX     - HEAT INDEX IN FAHRENHEIT
WCI    - WIND CHILL INDEX IN FAHRENHEIT
TC     - TEMPERATURE IN CELSIUS WHICH IS ALSO KNOWN AS
         TEMPERATURE IN CENTIGRADE
AFB    - AIR FORCE BASE
         LUKE AFB IS LUKE AIR FORCE BASE
         DAVIS-MONTHAN IS DAVIS-MONTHAN AIR FORCE BASE
NAS    - NAVAL AIR STATION
         EL CENTRO NAS IS EL CENTRO NAVAL AIR STATION
N/A    - NOT AVAILABLE



USA.gov is the U.S. government's official web portal to all federal, state and local government web resources and services.